ACA422 CYYZ-CYUL

Flight info

Callsign ACA422
Flight time N/A
Altitude 35000
Route DEDKI5 MIGLO HABBS7
Aircraft A320/M-SDE3FGHIRWY/LB1

Departure

Time 2026-05-03 23:42
Airport Toronto Pearson International Airport (CYYZ)

Arrival

Time N/A
Airport Montreal / Pierre Elliott Trudeau International Airport (CYUL)
Time Latitude Longitude Altitude Speed Heading
2026-05-03 22:37 43.68173 -79.61979 572 ft 0 kts 344°
2026-05-03 23:22 43.68150 -79.61970 572 ft 0 kts 344°
2026-05-03 23:22 43.68137 -79.61964 572 ft 2 kts 326°
2026-05-03 23:22 43.68126 -79.61951 572 ft 2 kts 309°
2026-05-03 23:23 43.68118 -79.61933 572 ft 2 kts 291°
2026-05-03 23:23 43.68115 -79.61913 572 ft 2 kts 274°
2026-05-03 23:23 43.68116 -79.61894 572 ft 2 kts 256°
2026-05-03 23:23 43.68121 -79.61875 572 ft 2 kts 238°
2026-05-03 23:24 43.68126 -79.61865 572 ft 0 kts 227°
2026-05-03 23:24 43.68131 -79.61858 572 ft 0 kts 225°
2026-05-03 23:32 43.68130 -79.61859 572 ft 0 kts 225°
2026-05-03 23:32 43.68122 -79.61870 572 ft 2 kts 225°
2026-05-03 23:32 43.68105 -79.61895 572 ft 4 kts 227°
2026-05-03 23:32 43.68077 -79.61937 572 ft 6 kts 227°
2026-05-03 23:33 43.68035 -79.61981 572 ft 8 kts 204°
2026-05-03 23:33 43.68005 -79.61995 571 ft 0 kts 198°
2026-05-03 23:34 43.67995 -79.62000 571 ft 3 kts 202°
2026-05-03 23:34 43.67966 -79.62036 571 ft 7 kts 242°
2026-05-03 23:34 43.67981 -79.62116 571 ft 10 kts 315°
2026-05-03 23:35 43.68042 -79.62193 571 ft 13 kts 316°
2026-05-03 23:35 43.68113 -79.62286 571 ft 15 kts 315°
2026-05-03 23:35 43.68198 -79.62399 570 ft 18 kts 319°
2026-05-03 23:35 43.68298 -79.62518 569 ft 20 kts 317°
2026-05-03 23:36 43.68406 -79.62658 565 ft 22 kts 316°
2026-05-03 23:36 43.68521 -79.62811 563 ft 23 kts 313°
2026-05-03 23:36 43.68632 -79.62962 559 ft 21 kts 318°
2026-05-03 23:36 43.68747 -79.63102 556 ft 23 kts 317°
2026-05-03 23:37 43.68866 -79.63258 554 ft 24 kts 316°
2026-05-03 23:37 43.68990 -79.63420 551 ft 24 kts 315°
2026-05-03 23:37 43.69096 -79.63527 549 ft 12 kts
2026-05-03 23:37 43.69156 -79.63473 550 ft 10 kts 46°
2026-05-03 23:38 43.69220 -79.63425 550 ft 10 kts
2026-05-03 23:38 43.69261 -79.63425 550 ft 0 kts
2026-05-03 23:39 43.69262 -79.63425 550 ft 0 kts
2026-05-03 23:39 43.69273 -79.63424 550 ft 2 kts
2026-05-03 23:40 43.69300 -79.63422 550 ft 4 kts
2026-05-03 23:40 43.69341 -79.63422 550 ft 6 kts 334°
2026-05-03 23:40 43.69378 -79.63477 550 ft 8 kts 309°
2026-05-03 23:40 43.69392 -79.63515 550 ft 2 kts 270°
2026-05-03 23:41 43.69384 -79.63546 550 ft 3 kts 238°
2026-05-03 23:41 43.69376 -79.63560 550 ft 0 kts 230°
2026-05-03 23:41 43.69369 -79.63572 550 ft 14 kts 230°
2026-05-03 23:41 43.69109 -79.63949 547 ft 91 kts 226°
2026-05-03 23:42 43.68522 -79.64809 555 ft 150 kts 228°
2026-05-03 23:42 43.67773 -79.65864 1140 ft 154 kts 227°
2026-05-03 23:42 43.67054 -79.66917 1885 ft 152 kts 231°
2026-05-03 23:42 43.66377 -79.68079 2434 ft 163 kts 232°
2026-05-03 23:43 43.65547 -79.69257 2926 ft 181 kts 218°
2026-05-03 23:43 43.64390 -79.70061 3469 ft 197 kts 199°
2026-05-03 23:43 43.62970 -79.70241 4011 ft 218 kts 177°
2026-05-03 23:43 43.61420 -79.69571 4445 ft 249 kts 154°
2026-05-03 23:44 43.59957 -79.67757 5020 ft 276 kts 131°
2026-05-03 23:44 43.58701 -79.65543 6004 ft 278 kts 129°
2026-05-03 23:44 43.57864 -79.62933 6935 ft 289 kts 108°
2026-05-03 23:44 43.57406 -79.60052 7840 ft 293 kts 106°
2026-05-03 23:45 43.56929 -79.57310 8653 ft 296 kts 110°
2026-05-03 23:45 43.56338 -79.54585 9474 ft 298 kts 113°
2026-05-03 23:45 43.55674 -79.51906 10274 ft 301 kts 115°
2026-05-03 23:45 43.54948 -79.49155 10919 ft 310 kts 116°
2026-05-03 23:46 43.54185 -79.46325 11641 ft 315 kts 116°
2026-05-03 23:46 43.53617 -79.43256 12416 ft 327 kts 99°
2026-05-03 23:46 43.53820 -79.39915 13193 ft 339 kts 79°
2026-05-03 23:46 43.54518 -79.36629 13930 ft 344 kts 75°
2026-05-03 23:47 43.55282 -79.33443 14579 ft 350 kts 76°
2026-05-03 23:47 43.56058 -79.30206 15233 ft 354 kts 76°
2026-05-03 23:47 43.56826 -79.26924 15922 ft 356 kts 76°
2026-05-03 23:47 43.57577 -79.23644 16560 ft 359 kts 77°
2026-05-03 23:48 43.58314 -79.20376 17156 ft 363 kts 77°
2026-05-03 23:48 43.59059 -79.17043 17739 ft 367 kts 77°
2026-05-03 23:48 43.59815 -79.13653 18301 ft 371 kts 78°
2026-05-03 23:48 43.60637 -79.09950 18883 ft 376 kts 78°
2026-05-03 23:49 43.61449 -79.06284 19442 ft 381 kts 78°
2026-05-03 23:49 43.62224 -79.02777 19965 ft 385 kts 78°
2026-05-03 23:49 43.63004 -78.99252 20502 ft 388 kts 79°
2026-05-03 23:49 43.63747 -78.95886 21001 ft 392 kts 79°
2026-05-03 23:50 43.64536 -78.92300 21509 ft 395 kts 79°
2026-05-03 23:50 43.65068 -78.89877 21849 ft 397 kts 79°
2026-05-03 23:50 43.66140 -78.84987 22533 ft 401 kts 79°
2026-05-03 23:50 43.66949 -78.81284 23027 ft 404 kts 79°
2026-05-03 23:51 43.67764 -78.77552 23506 ft 408 kts 79°
2026-05-03 23:51 43.68583 -78.73829 23980 ft 411 kts 79°
2026-05-03 23:51 43.69543 -78.70070 24449 ft 417 kts 74°
2026-05-03 23:51 43.70671 -78.66294 24963 ft 420 kts 73°
2026-05-03 23:52 43.71819 -78.62592 25445 ft 422 kts 73°
2026-05-03 23:52 43.72991 -78.58827 25877 ft 425 kts 73°
2026-05-03 23:52 43.74146 -78.55102 26302 ft 427 kts 73°
2026-05-03 23:52 43.75311 -78.51329 26737 ft 430 kts 73°
2026-05-03 23:53 43.76484 -78.47509 27145 ft 432 kts 73°
2026-05-03 23:53 43.77659 -78.43671 27535 ft 435 kts 73°
2026-05-03 23:53 43.78839 -78.39811 27925 ft 438 kts 73°
2026-05-03 23:53 43.80032 -78.35902 28329 ft 440 kts 74°
2026-05-03 23:54 43.81229 -78.31971 28703 ft 442 kts 75°
2026-05-03 23:54 43.82433 -78.28015 29077 ft 444 kts 75°
2026-05-03 23:54 43.83647 -78.24015 29423 ft 447 kts 75°
2026-05-03 23:54 43.84874 -78.19970 29781 ft 449 kts 75°
2026-05-03 23:55 43.86081 -78.15984 30131 ft 451 kts 75°
2026-05-03 23:55 43.87289 -78.11988 30459 ft 453 kts 75°
2026-05-03 23:55 43.88517 -78.07916 30774 ft 456 kts 75°
2026-05-03 23:55 43.89727 -78.03897 31088 ft 458 kts 75°
2026-05-03 23:56 43.90974 -77.99754 31416 ft 459 kts 75°
2026-05-03 23:56 43.92196 -77.95684 31712 ft 461 kts 75°
2026-05-03 23:56 43.93430 -77.91570 32014 ft 463 kts 75°
2026-05-03 23:56 43.94671 -77.87421 32296 ft 465 kts 76°
2026-05-03 23:57 43.95932 -77.83201 32572 ft 467 kts 76°
2026-05-03 23:57 43.97169 -77.79058 32853 ft 469 kts 76°
2026-05-03 23:57 43.98418 -77.74867 33140 ft 470 kts 76°
2026-05-03 23:57 43.99680 -77.70622 33405 ft 472 kts 76°
2026-05-03 23:58 44.00933 -77.66401 33660 ft 474 kts 76°
2026-05-03 23:58 44.02211 -77.62089 33913 ft 476 kts 76°